[[{"header":{"parameterUnit":"m.s-1","parameterCategory":1,"la1":30.2991,"la2":30.254,"lo1":-89.0895,"lo2":-89.0444,"dy":0.0017,"dx":0.0017,"nx":28,"ny":28,"refTime":"2026-01-01T09:00:00:Z","depth":0,"parameterNumber":2,"parameterNumberName":"U-component_of_WINDS"},"data":[0,0,0,0,0,0,0,0,0,0,0,0,0,0,0,0,0,0,0,0,0,0,0,0,0,0,0,0,0,0,0,0,0,0,0,0,0,0,0,0,0,0,0,0,0,0,0,0,0,0,0,0,0,0,0,0,0,0,0.7677,0.7679,0,0.7855,0.7857,0.7859,0.7898,0.7896,0.7895,0.7894,0.8084,0.809,0.8096,0,0,0,0,0,0,0,0,0,0,0,0,0,0.7379,0.7384,0.7677,0.7679,0.7682,0.7855,0.7857,0.786,0.7898,0.7896,0.7895,0.7893,0.8082,0.8089,0.8097,0,0,0,0,0,0,0,0,0,0,0,0,0,0.7528,0.7386,0.7677,0.7721,0.7727,0.7854,0.7857,0.786,0.7898,0.7896,0.7894,0.7892,0.8079,0.8089,0.8098,0.8196,0,0,0.8127,0.8131,0,0,0,0,0,0,0,0,0.7519,0.7539,0.7713,0.7718,0.7725,0.7852,0.7822,0.7973,0.7899,0.7834,0.7894,0.7891,0.8009,0.8024,0.8062,0.8205,0.8213,0.8128,0.8133,0.8137,0.814,0,0,0,0,0,0,0,0.7509,0.7532,0.7748,0.7715,0.7723,0.7735,0.7754,0.7851,0.793,0.7839,0.7842,0.7862,0.8012,0.8053,0.8067,0.8216,0.8127,0.8136,0.8142,0.8145,0.845,0.8452,0,0,0,0,0,0,0.749,0.7523,0.7742,0.7753,0.7615,0.7742,0.7763,0.7813,0.7929,0.7945,0.7864,0.7863,0.8038,0.8056,0.8074,0.8197,0.8137,0.8146,0.8152,0.8448,0.845,0.8453,0,0,0,0,0,0,0.7483,0.7509,0.7735,0.7639,0.7668,0.7749,0.7805,0.7818,0.7859,0.7948,0.7963,0.789,0.8037,0.806,0.8165,0.8204,0.815,0.8159,0.8445,0.8448,0.8452,0.8444,0,0,0,0,0,0,0.7474,0.7506,0.7542,0.7639,0.7673,0.7821,0.7808,0.7823,0.7874,0.7875,0.7977,0.7992,0.8037,0.8151,0.8174,0.8216,0.8166,0.8442,0.8446,0.8451,0.8441,0.8447,0.8452,0,0,0,0,0,0.7464,0.7534,0.7544,0.757,0.772,0.7823,0.7843,0.7891,0.7877,0.7915,0.7973,0.7989,0.8196,0.8161,0.8188,0.8233,0.8439,0.8445,0.845,0.8439,0.8446,0.8452,0,0,0,0,0,0,0.7443,0.7548,0.756,0.7663,0.7733,0.7829,0.7879,0.7897,0.7974,0.7973,0.8032,0.8054,0.8156,0.8205,0.8165,0.8335,0.8317,0.8328,0.8299,0.8307,0.8312,0.8299,0.8174,0,0,0,0,0,0.7449,0.7522,0.7611,0.7694,0.7728,0.7797,0.7844,0.7875,0.7951,0.7982,0.8047,0.8123,0.8206,0.8259,0.8339,0.8448,0.8473,0.8493,0.8498,0.8502,0.8512,0.8575,0.8586,0.8471,0.8471,0.8471,0,0,0.7466,0.7532,0.7575,0.7692,0.775,0.7826,0.7822,0.7903,0.7961,0.7995,0.8098,0.8148,0.8237,0.8344,0.8395,0.8389,0.8549,0.8509,0.8512,0.8519,0.8582,0.8593,0.8603,0.8475,0.8474,0.8474,0,0,0.7534,0.7591,0.7666,0.7724,0.7811,0.7857,0.7875,0.7968,0.8002,0.8105,0.8133,0.8205,0.8344,0.8407,0.8457,0.855,0.8569,0.8575,0.8603,0.8665,0.8674,0.8682,0.8718,0.8729,0.8584,0.8584,0.8584,0,0.7544,0.7657,0.7704,0.7784,0.7835,0.7867,0.7946,0.8001,0.8111,0.8147,0.8138,0.8315,0.8377,0.85,0.8522,0.8561,0.8587,0.8564,0.8668,0.8677,0.8686,0.872,0.8733,0.8584,0.8584,0.8584,0.8584,0,0.7666,0.7745,0.7796,0.7899,0.7956,0.8035,0.8096,0.815,0.8176,0.8223,0.8329,0.8404,0.8501,0.8533,0.856,0.8661,0.8655,0.8656,0.8639,0.8696,0.873,0.8743,0.8584,0.8584,0.8584,0.8584,0,0,0.7727,0.7854,0.7872,0.792,0.8019,0.8082,0.8163,0.8256,0.8301,0.8376,0.8448,0.8566,0.8568,0.8625,0.866,0.8713,0.8784,0.8708,0.8711,0.8722,0.8904,0.8903,0.8918,0.8796,0.8799,0.8801,0.8897,0,0.7809,0.7952,0.7997,0.8119,0.8193,0.8224,0.8296,0.8366,0.8412,0.8485,0.8538,0.8621,0.8616,0.8651,0.8705,0.8764,0.8822,0.8757,0.8867,0.8871,0.8846,0.8935,0.8935,0.9021,0.891,0.8912,0.8914,0,0.7924,0.7998,0.8126,0.8216,0.8249,0.8312,0.8402,0.8469,0.855,0.8581,0.8644,0.8674,0.8764,0.8741,0.8867,0.8822,0.887,0.8906,0.891,0.8924,0.8897,0.8953,0.905,0.9063,0.8935,0.8933,0.8931,0,0.7958,0.809,0.8184,0.8224,0.8331,0.8375,0.8422,0.8501,0.8554,0.8633,0.8669,0.8758,0.8807,0.8877,0.8932,0.8909,0.9054,0.9035,0.9085,0.9084,0.9116,0.9113,0.9223,0.9143,0.9142,0.9142,0.9142,0,0.8045,0.8123,0.8201,0.8259,0.8348,0.84,0.8487,0.8537,0.8606,0.8677,0.871,0.8777,0.8844,0.892,0.8964,0.9063,0.9085,0.9115,0.9126,0.9113,0.9109,0.9147,0.9143,0.9146,0.9145,0.9144,0.9144,0,0.8099,0.8154,0.8259,0.8351,0.8376,0.8438,0.8518,0.8578,0.8625,0.8714,0.8738,0.8814,0.8906,0.8966,0.9084,0.9114,0.9223,0.9231,0.9194,0.92,0.9248,0.9243,0.9387,0.941,0.9311,0.9312,0.9313,0,0.8152,0.8212,0.831,0.8358,0.8405,0.8483,0.8536,0.859,0.8646,0.8743,0.8792,0.8884,0.8962,0.9107,0.9175,0.9266,0.9279,0.9323,0.9293,0.9279,0.9283,0.9279,0.9287,0.9328,0.9329,0.933,0.933,0,0.8241,0.8265,0.834,0.8425,0.8488,0.8558,0.8629,0.8667,0.8734,0.8795,0.8888,0.8947,0.9067,0.916,0.9257,0.931,0.9333,0.9339,0.9356,0.9344,0.9321,0.9337,0.921,0.9336,0.9335,0.9335,0.9334,0.9334,0.8298,0.8353,0.8431,0.8514,0.8572,0.8638,0.8698,0.8753,0.8829,0.8929,0.8957,0.9054,0.9136,0.9268,0.9322,0.9402,0.9398,0.9421,0.9428,0.9434,0.9435,0.9306,0.9419,0.9419,0.9419,0.9419,0.9419,0,0.8391,0.8442,0.8517,0.8614,0.868,0.8692,0.8771,0.8827,0.8911,0.8984,0.9059,0.9167,0.9257,0.9332,0.9427,0.9476,0.9489,0.9499,0.9498,0.951,0.9432,0.9409,0.9487,0.9487,0.9487,0.9487,0.9487,0.9487,0.8447,0.8542,0.8575,0.8701,0.8753,0.8846,0.8891,0.8952,0.9011,0.9129,0.9203,0.925,0.9325,0.9425,0.9511,0.9531,0.9565,0.9574,0.9596,0.9523,0.9515,0.9508,0.9487,0.958,0.958,0.9668,0.9669,0.9669]},{"header":{"parameterUnit":"m.s-1","parameterCategory":1,"la1":30.2991,"la2":30.254,"lo1":-89.0895,"lo2":-89.0444,"dy":0.0017,"dx":0.0017,"nx":28,"ny":28,"refTime":"2026-01-01T09:00:00:Z","depth":0,"parameterNumber":3,"parameterNumberName":"V-component_of_WINDS"},"data":[0,0,0,0,0,0,0,0,0,0,0,0,0,0,0,0,0,0,0,0,0,0,0,0,0,0,0,0,0,0,0,0,0,0,0,0,0,0,0,0,0,0,0,0,0,0,0,0,0,0,0,0,0,0,0,0,0,0,3.0052,3.0053,0,3.0131,3.0132,3.0133,3.0094,3.0092,3.009,3.0088,3.0169,3.0172,3.0176,0,0,0,0,0,0,0,0,0,0,0,0,0,2.9869,2.9873,3.0052,3.0053,3.0054,3.0131,3.0132,3.0133,3.0094,3.0092,3.0089,3.0087,3.0167,3.0172,3.0177,0,0,0,0,0,0,0,0,0,0,0,0,0,2.9948,2.9874,3.0052,3.0044,3.0044,3.013,3.0132,3.0133,3.0095,3.0092,3.0089,3.0086,3.0166,3.0171,3.0177,3.0276,0,0,3.0196,3.0199,0,0,0,0,0,0,0,0,2.9944,2.9955,3.0044,3.0045,3.0045,3.0099,3.0097,3.0181,3.0095,3.0076,3.0088,3.0084,3.0148,3.0155,3.0177,3.028,3.0283,3.0197,3.02,3.0203,3.0205,0,0,0,0,0,0,0,2.9939,2.9952,3.0083,3.0046,3.0046,3.0037,3.0045,3.0113,3.0128,3.0077,3.0074,3.0084,3.0148,3.0171,3.0178,3.0285,3.0196,3.0202,3.0206,3.0208,3.0473,3.0476,0,0,0,0,0,0,2.9933,2.9947,3.0081,3.0086,2.9986,3.0043,3.0051,3.0085,3.0127,3.0131,3.0087,3.0082,3.0162,3.0171,3.0181,3.03,3.0203,3.0209,3.0212,3.047,3.0474,3.0478,0,0,0,0,0,0,2.993,2.9946,3.0078,3.0016,3.0032,3.0049,3.0087,3.0088,3.0111,3.0134,3.0137,3.0108,3.016,3.0173,3.0253,3.0302,3.0211,3.0217,3.0466,3.0471,3.0476,3.0538,0,0,0,0,0,0,2.9924,2.9945,2.9982,3.0017,3.0035,3.0148,3.009,3.0092,3.0122,3.0117,3.0155,3.0158,3.0159,3.0244,3.0259,3.0309,3.0222,3.0461,3.0468,3.0474,3.0532,3.0545,3.0556,0,0,0,0,0,2.9918,2.9997,2.9984,3.0001,3.0083,3.0151,3.0162,3.016,3.0126,3.0164,3.0179,3.0157,3.0294,3.0253,3.0269,3.0322,3.0458,3.0466,3.0474,3.0526,3.0542,3.0555,0,0,0,0,0,0,2.9967,3.0001,2.9988,3.008,3.0113,3.0144,3.0192,3.0177,3.0221,3.0214,3.0211,3.022,3.0303,3.032,3.0273,3.0419,3.0371,3.0382,3.0405,3.0421,3.0432,3.0427,3.0227,0,0,0,0,0,2.9989,3.0041,3.0068,3.0147,3.0164,3.0176,3.0205,3.0201,3.0236,3.025,3.027,3.0304,3.0355,3.0389,3.0436,3.0534,3.0542,3.0578,3.059,3.06,3.061,3.0663,3.068,3.0503,3.0503,3.0502,0,0,3.0034,3.0059,3.0092,3.0157,3.0182,3.0237,3.0188,3.0248,3.0288,3.0259,3.0336,3.0352,3.039,3.048,3.052,3.0496,3.066,3.0609,3.0617,3.0622,3.0673,3.0689,3.0704,3.0508,3.0507,3.0506,0,0,3.0144,3.0168,3.0236,3.0263,3.0301,3.0309,3.0325,3.0359,3.0369,3.0446,3.0425,3.0474,3.0561,3.0589,3.0615,3.0736,3.0718,3.0752,3.0815,3.0867,3.0881,3.0893,3.0937,3.0953,3.0761,3.0762,3.0762,0,3.0195,3.0277,3.0273,3.0335,3.0365,3.034,3.041,3.0435,3.0488,3.0509,3.0482,3.0591,3.0615,3.0711,3.074,3.0762,3.0781,3.0748,3.0879,3.0891,3.0903,3.0945,3.0961,3.0765,3.0765,3.0765,3.0764,0,3.0338,3.0395,3.0446,3.0497,3.0532,3.0598,3.0604,3.064,3.0633,3.0643,3.0723,3.075,3.0804,3.0826,3.082,3.0921,3.0906,3.0879,3.083,3.0924,3.0963,3.0979,3.0771,3.077,3.0768,3.0768,0,0,3.0482,3.0531,3.0549,3.0573,3.0614,3.0658,3.0722,3.0774,3.0806,3.0843,3.0897,3.0971,3.0947,3.0976,3.0973,3.1018,3.1113,3.0986,3.0987,3.1009,3.1228,3.1249,3.1267,3.1101,3.1104,3.1106,3.1225,0,3.0595,3.0708,3.0707,3.0812,3.0865,3.0842,3.0898,3.093,3.0941,3.0987,3.0999,3.1053,3.1016,3.1034,3.1077,3.1092,3.1157,3.1084,3.1152,3.1155,3.1144,3.1288,3.131,3.142,3.124,3.1243,3.1245,0,3.0743,3.0785,3.0895,3.0929,3.0951,3.1002,3.105,3.1094,3.113,3.1135,3.1168,3.1157,3.1223,3.1172,3.1262,3.1213,3.124,3.1252,3.1256,3.1263,3.1206,3.1299,3.1455,3.1472,3.1269,3.1267,3.1265,0,3.0838,3.0922,3.0999,3.1019,3.1061,3.1097,3.1116,3.1148,3.1179,3.1221,3.1242,3.1291,3.1318,3.1356,3.1359,3.1321,3.1451,3.14,3.1457,3.1458,3.1487,3.1485,3.165,3.1503,3.1503,3.1502,3.1502,0,3.0965,3.1034,3.1042,3.1089,3.1165,3.1163,3.1239,3.1254,3.1283,3.1333,3.1316,3.1364,3.1365,3.1413,3.1416,3.1492,3.1504,3.151,3.151,3.1512,3.1511,3.1531,3.1524,3.1507,3.1506,3.1505,3.1504,0,3.1084,3.1093,3.1175,3.1207,3.1217,3.1272,3.1299,3.1345,3.1354,3.1418,3.1433,3.1448,3.1504,3.1511,3.1576,3.1578,3.1669,3.1661,3.1658,3.1657,3.1714,3.1709,3.1899,3.1924,3.1759,3.1761,3.1762,0,3.1165,3.1218,3.1256,3.1288,3.1309,3.1361,3.1394,3.1394,3.1428,3.1472,3.1513,3.1567,3.1611,3.1702,3.1719,3.1769,3.1762,3.1825,3.177,3.1771,3.1765,3.1762,3.1767,3.1836,3.1838,3.184,3.1841,0,3.1309,3.1311,3.1358,3.1407,3.1446,3.1485,3.1521,3.1548,3.1553,3.1592,3.165,3.1684,3.1751,3.1806,3.1855,3.1875,3.1859,3.1858,3.1874,3.1877,3.1874,3.1877,3.1688,3.1854,3.1852,3.1852,3.1851,3.185,3.1412,3.1458,3.1492,3.1545,3.1572,3.1607,3.1651,3.1666,3.1714,3.1769,3.1766,3.183,3.1864,3.1929,3.1952,3.2002,3.1981,3.2004,3.2011,3.2017,3.2023,3.1865,3.2011,3.2011,3.201,3.201,3.201,0,3.1556,3.1576,3.1626,3.1677,3.1719,3.17,3.1739,3.1776,3.1832,3.1866,3.1909,3.1976,3.2029,3.205,3.2102,3.2138,3.2132,3.2152,3.215,3.2155,3.2038,3.2019,3.2156,3.2156,3.2156,3.2156,3.2155,3.2155,3.1635,3.1712,3.1718,3.1807,3.1828,3.189,3.1914,3.1946,3.1973,3.2048,3.2092,3.2105,3.2134,3.2188,3.2236,3.2241,3.2261,3.2284,3.2286,3.2177,3.2163,3.2149,3.2131,3.2289,3.2289,3.2399,3.24,3.2401]}]]